Find STARLINK-37957

NORAD ID: 799501032 Int'l Des: 2026-146J Constellation: starlink operational

Aktuelle Ansicht

3D-Globus wird geladen...

About STARLINK-37957

STARLINK-37957 (NORAD 799501032) is a starlink constellation satellite launched Jun 12, 2026

Über STARLINK-37957

Beschreibung wird geladen...

Nächste Überflüge

Passes for default location (London). Set your location on the main map for personalized predictions.

Höhenverlauf

Loading altitude history...

Zweizeiliger Elementsatz

1 99999C 2026146J 26176.32270832 .00767950 00000-0 118200-3 0 1761
2 99999 97.2858 21.9776 0011173 278.5609 146.4222 16.03768161 19
Epoch: 25. Juni 2026 • Age: 10 hours